Regional Weather Roundup
Issued by NWS

Home | Current Version | Previous Version | Graphics & Text | Print | Product List | Glossary Off
Versions: 1 2 3 4 5 6 7 8 9 10 11 12 13 14 15 16 17 18 19 20 21 22 23 24 25 26 27 28 29 30 31 32 33 34 35 36 37 38 39 40 41

000
ASUS45 KCYS 271810
RWRWY

WYOMING REGIONAL WEATHER ROUNDUP
NATIONAL WEATHER SERVICE CHEYENNE WY
1100 AM MST SAT DEC 27 2014

NOTE:  "FAIR" INDICATES FEW OR NO CLOUDS BELOW 12,000 FEET
WITH NO SIGNIFICANT WEATHER AND/OR OBSTRUCTIONS TO VISIBILITY.

WYZ001-271900-
YELLOWSTONE NATIONAL PARK

CITY           SKY/WX    TMP DP  RH WIND       PRES   REMARKS
LK YELLOWSTONE   N/A      8   4  83 VRB6      30.11F WCI  -2
6HR MIN TEMP:  -8; 6HR MAX TEMP:   8; 6HR PCP:  0.01;

W YELLOWSTONE  NOT AVBL

$$
WYZ002>013-054>058-071-098>099-271900-
NORTHERN WYOMING

CITY           SKY/WX    TMP DP  RH WIND       PRES   REMARKS
JACKSON        CLOUDY     3   3 100 NE5       30.19F HAZE    WCI  -6
CODY           CLOUDY    25   5  42 W9G22     30.04S WCI  15
GREYBULL       FAIR       4   2  91 SE6       30.14F WCI  -7
6HR MIN TEMP:   0; 6HR MAX TEMP:   4;

WORLAND        FAIR      -1  -1 100 CALM      30.14S
6HR MIN TEMP:  -9; 6HR MAX TEMP:  -1; 6HR PCP: TRACE;

SHERIDAN       FAIR      12   5  73 CALM      30.05F
6HR MIN TEMP:  -5; 6HR MAX TEMP:  12;

BUFFALO        FAIR      22   6  50 W3        30.02S
6HR MIN TEMP:   3; 6HR MAX TEMP:  22;

GILLETTE       FAIR      21  12  68 VRB3      30.03F
6HR MIN TEMP:   7; 6HR MAX TEMP:  21;

HULETT           N/A    N/A N/A N/A MISG        N/A
NEWCASTLE      FAIR      23  16  74 S5        30.09F WCI  17

$$
WYZ014>020-022>026-101>103-271900-
CENTRAL WYOMING

CITY           SKY/WX    TMP DP  RH WIND       PRES   REMARKS
BIG PINEY      FAIR      -5  -8  87 SW3       30.15F
6HR MIN TEMP: -15; 6HR MAX TEMP:  -2;

PINEDALE       FAIR       3   0  85 NW7       30.15F WCI  -9
DUBOIS         NOT AVBL
LANDER         FAIR      11   2  67 CALM      30.05F
6HR MIN TEMP:   1; 6HR MAX TEMP:  14;

RIVERTON       FAIR      10   1  67 SW9       30.07S WCI  -3
6HR MIN TEMP:   1; 6HR MAX TEMP:  11;

CASPER         FAIR      16   6  65 SW23      30.07S WCI  -2
6HR MIN TEMP:   9; 6HR MAX TEMP:  16;

DOUGLAS        FAIR       9   6  88 CALM      30.07F
6HR MIN TEMP:  -5; 6HR MAX TEMP:  11;


$$
WYZ021-027>030-104>119-271900-
SOUTHERN WYOMING

CITY           SKY/WX    TMP DP  RH WIND       PRES   REMARKS
EVANSTON       FAIR      12   7  80 SW14      30.20S WCI  -3
6HR MIN TEMP:   3; 6HR MAX TEMP:  12;

FORT BRIDGER   FAIR      17   9  68 W17G24    30.22S WCI   2
ROCK SPRINGS   FAIR      11   4  73 SW18      30.16F WCI  -7
6HR MIN TEMP:   4; 6HR MAX TEMP:  11;

DIXON          CLOUDY     8   2  78 CALM      30.26S
RAWLINS        FAIR      11   4  73 SW12G21   30.13S WCI  -3
6HR MIN TEMP:  -4; 6HR MAX TEMP:  11; 6HR PCP: TRACE;

SARATOGA       FAIR      10   3  72 S3        30.15S
LARAMIE        FAIR      10   3  73 SW18      30.01F WCI  -8
6HR MIN TEMP: -19; 6HR MAX TEMP:  11;

CHEYENNE       FAIR      19   3  49 W13       30.07F WCI   6
6HR MIN TEMP:   4; 6HR MAX TEMP:  19;

TORRINGTON     FAIR       9   5  84 E5        30.13F WCI   1
6HR MIN TEMP:  -1; 6HR MAX TEMP:   9;

PINE BLUFFS    FAIR      19   9  63 W13       30.12F WCI   7

$$


USA.gov is the U.S. government's official web portal to all federal, state and local government web resources and services.